Location: Rometta
(44.2000°N, 10.0500°E)
Time: 11:55:41
(UTC+00:00)

Cosmos 1818 - Pass Details

Date: 17 May 2021
Orbit: 771 x 802 km, 65.0° (Epoch: 15 June)

Event Time Altitude Azimuth Distance (km) Brightness Sun altitude
Rises 22:42:13 0° 306° (NW) 3,317 7.4 -25.8°
Reaches altitude 10° 22:46:24 10° 275° (W) 2,377 6.2 -25.9°
Maximum altitude 22:48:12 12° 256° (WSW) 2,256 5.8 -25.9°
Enters shadow 22:48:18 12° 255° (WSW) 2,256 5.8 -25.9°
